DW7831 Weather Reports


time (UTC)temp
C
wind
direction
speed
KPH
gust
KPH
rain 1hr
cm
rain 24hr
cm
rain mn
cm
humidity
%
barometer
mb
20260509134559 7 247 0.0 0.0 0.00 0.00 0.51 100 1012.4
20260509133058 7 247 0.0 0.0 0.00 0.00 0.46 100 1012.5
20260509131602 6 247 0.0 0.0 0.00 0.00 0.41 100 1012.7
20260509130122 6 247 0.0 0.0 0.00 0.00 0.38 100 1012.6
20260509124545 6 247 0.0 0.0 0.00 0.00 0.36 100 1012.6
20260509123113 5 247 0.0 0.0 0.00 0.00 0.33 100 1012.5
20260509121540 5 247 0.0 0.0 0.00 0.00 0.33 100 1012.6
20260509120040 5 247 0.0 0.0 0.00 0.00 0.33 100 1012.6
20260509114530 4 247 0.0 0.0 0.00 0.00 0.30 100 1012.7
20260509113025 4 247 0.0 0.0 0.00 0.00 0.28 100 1012.7
20260509111522 4 247 0.0 0.0 0.00 0.00 0.25 100 1012.5
20260509110019 3 247 0.0 0.0 0.00 0.00 0.25 100 1012.7
20260509104514 3 247 0.0 0.0 0.00 0.00 0.25 100 1012.6
20260509103009 3 247 0.0 0.0 0.00 0.00 0.25 100 1012.5
20260509101511 3 247 0.0 0.0 0.00 0.00 0.23 100 1012.6
20260509100005 3 247 0.0 0.0 0.00 0.00 0.20 100 1012.6
20260509094603 3 247 0.0 0.0 0.00 0.00 0.20 100 1012.7
20260509093058 3 246 0.0 0.0 0.00 0.00 0.20 100 1012.8
20260509091553 3 246 0.0 0.0 0.00 0.00 0.20 100 1012.9
20260509090046 3 246 0.0 0.0 0.00 0.00 0.20 100 1013.0
20260509084541 3 246 0.0 0.0 0.00 0.00 0.18 100 1012.9
20260509083036 3 246 0.0 0.0 0.00 0.00 0.18 100 1013.1
20260509081534 3 246 0.0 0.0 0.00 0.00 0.13 100 1013.3
20260509080030 2 246 0.0 0.0 0.00 0.00 0.08 2 1013.4
20260509074526 2 246 0.0 0.0 0.00 0.00 0.03 2 1013.2
20260509073022 2 246 0.0 0.0 0.00 0.00 0.00 100 1013.2
20260509071518 1 246 0.0 0.0 0.00 0.00 0.00 2 1013.1
20260509070014 1 246 0.0 0.0 0.00 0.00 0.00 5 1013.1
20260509064509 1 246 0.0 0.0 0.00 0.00 0.00 6 1013.2
20260509063007 1 246 0.0 0.0 0.00 0.00 0.00 10 1013.4
20260509061512 0 246 0.0 0.0 0.00 0.00 0.00 14 1013.4
20260509060001 0 246 0.0 0.0 0.00 0.00 0.00 17 1013.5
20260509054611 0 246 0.0 0.0 0.00 0.00 0.00 21 1013.7
20260509053104 1 246 0.0 0.0 0.00 0.00 0.00 26 1013.9
20260509051603 1 246 0.0 0.0 0.00 0.00 0.00 32 1014.1
20260509050052 1 246 0.0 0.0 0.00 0.00 0.00 38 1014.2
20260509044548 1 246 0.0 0.0 0.00 0.00 0.00 43 1014.2
20260509043044 2 246 0.0 0.0 0.00 0.00 0.00 46 1014.1
20260509041540 2 246 0.0 0.0 0.00 0.00 0.00 47 1014.2
20260509040042 2 246 0.0 0.0 0.00 0.00 0.00 47 1014.1
20260509034535 3 246 0.0 0.0 0.00 0.00 0.10 48 1014.1
20260509033028 3 246 0.0 0.0 0.00 0.00 0.10 49 1014.2
20260509031529 3 246 0.0 0.0 0.00 0.00 0.10 51 1014.3
20260509030023 3 246 0.0 0.0 0.00 0.00 0.10 53 1014.2
20260509024517 3 246 0.0 0.0 0.00 0.00 0.10 56 1014.4
20260509023015 3 246 0.0 0.0 0.00 0.00 0.10 59 1014.2
20260509021513 3 246 0.0 0.0 0.00 0.00 0.10 60 1014.3
20260509020006 3 246 0.0 0.0 0.00 0.00 0.10 61 1014.2
20260509014505 3 246 0.0 0.0 0.00 0.00 0.10 62 1014.0
20260509013058 4 246 0.0 0.0 0.00 0.00 0.10 63 1013.7
20260509010057 4 246 0.0 0.0 0.00 0.00 0.10 64 1013.3
20260509004547 5 246 0.0 0.0 0.00 0.00 0.10 61 1013.0
20260509003046 6 246 0.0 0.0 0.00 0.00 0.10 58 1012.9
20260509000035 8 246 0.0 0.0 0.00 0.00 0.10 51 1012.6
20260508234532 8 246 0.0 0.0 0.00 0.00 0.10 49 1012.6
20260508233027 8 246 0.0 0.0 0.00 0.00 0.10 48 1012.3
20260508230019 9 257 6.4 0.0 0.00 0.00 0.10 47 1012.1
20260508224519 9 243 6.4 0.0 0.00 0.00 0.10 46 1012.0
20260508223010 9 207 12.9 0.0 0.00 0.00 0.10 46 1012.2
20260508220015 9 244 9.7 0.0 0.00 0.00 0.10 46 1012.3
20260508214559 9 229 9.7 0.0 0.00 0.00 0.10 45 1012.1
20260508213059 9 256 6.4 0.0 0.00 0.00 0.10 48 1012.1
20260508210048 8 229 8.0 0.0 0.00 0.00 0.10 53 1012.3
20260508204544 8 261 4.8 0.0 0.00 0.00 0.08 55 1012.3
20260508203040 7 218 6.4 0.0 0.00 0.00 0.08 58 1012.2
20260508200031 7 248 8.0 0.0 0.00 0.00 0.08 58 1012.7
20260508194532 6 252 8.0 0.0 0.00 0.00 0.08 58 1012.7
20260508193026 6 227 4.8 0.0 0.00 0.00 0.08 58 1012.8
20260508190018 7 201 9.7 0.0 0.00 0.00 0.08 57 1013.2
20260508184519 6 234 3.2 0.0 0.00 0.00 0.08 54 1013.0
20260508183011 6 229 11.3 0.0 0.00 0.00 0.08 47 1012.9
20260508180108 5 197 8.0 0.0 0.00 0.00 0.08 23 1013.1
20260508174612 4 200 9.7 0.0 0.00 0.00 0.08 16 1013.2
20260508173051 4 191 8.0 0.0 0.00 0.00 0.08 6 1013.2
20260508170045 3 240 1.6 0.0 0.00 0.00 0.08 14 1013.3
20260508164540 3 235 4.8 0.0 0.00 0.00 0.08 20 1013.2
20260508163039 3 242 1.6 0.0 0.00 0.00 0.05 20 1013.2
20260508160032 3 242 3.2 0.0 0.00 0.00 0.05 26 1013.1
20260508154526 3 240 1.6 0.0 0.00 0.00 0.05 31 1013.2
20260508153023 3 238 1.6 0.0 0.00 0.00 0.05 43 1013.2
20260508150018 4 233 6.4 0.0 0.00 0.00 0.00 63 1012.9
20260508144511 6 238 4.8 0.0 0.00 0.00 0.00 61 1012.7
20260508143006 7 236 4.8 0.0 0.00 0.00 0.00 54 1012.2
20260508140100 7 257 1.6 0.0 0.00 0.00 0.00 56 1012.1